Time,TemperatureF,DewpointF,PressureIn,WindDirection,WindDirectionDegrees,WindSpeedMPH,WindSpeedGustMPH,Humidity,HourlyPrecipIn,Conditions,Clouds,dailyrainin,SoftwareType,DateUTC
2013-04-17 00:02:00,39.0,25.0,29.89,North,355,6.0,30.0,57,0.00,,,0.00,,2013-04-17 07:02:00,
2013-04-17 00:12:00,39.0,25.0,29.89,North,355,6.0,30.0,57,0.00,,,0.00,,2013-04-17 07:12:00,
2013-04-17 00:21:00,38.0,25.0,29.90,North,5,10.0,21.0,59,0.00,,,0.00,,2013-04-17 07:21:00,
2013-04-17 00:31:00,38.0,26.0,29.91,NNW,341,8.0,22.0,61,0.00,,,0.00,,2013-04-17 07:31:00,
2013-04-17 00:42:00,38.0,26.0,29.91,NNW,341,8.0,22.0,61,0.00,,,0.00,,2013-04-17 07:42:00,
2013-04-17 00:52:00,37.0,25.0,29.91,East,80,4.0,24.0,61,0.00,,,0.00,,2013-04-17 07:52:00,
2013-04-17 01:01:00,37.0,25.0,29.91,East,80,4.0,24.0,61,0.00,,,0.00,,2013-04-17 08:01:00,
2013-04-17 01:11:00,37.0,25.0,29.91,East,80,4.0,24.0,61,0.00,,,0.00,,2013-04-17 08:11:00,
2013-04-17 01:21:00,37.0,25.0,29.91,East,80,4.0,24.0,61,0.00,,,0.00,,2013-04-17 08:21:00,
2013-04-17 01:33:00,37.0,22.0,29.91,North,349,6.0,19.0,54,0.00,,,0.00,,2013-04-17 08:33:00,
2013-04-17 01:42:00,37.0,22.0,29.91,North,349,6.0,19.0,54,0.00,,,0.00,,2013-04-17 08:42:00,
2013-04-17 01:52:00,37.0,22.0,29.91,North,349,6.0,19.0,54,0.00,,,0.00,,2013-04-17 08:52:00,
2013-04-17 02:02:00,36.0,20.0,29.92,North,355,10.0,22.0,51,0.00,,,0.00,,2013-04-17 09:02:00,
2013-04-17 02:11:00,36.0,20.0,29.92,North,355,10.0,22.0,51,0.00,,,0.00,,2013-04-17 09:11:00,
2013-04-17 02:22:00,36.0,20.0,29.92,NNW,346,7.0,20.0,52,0.00,,,0.00,,2013-04-17 09:22:00,
2013-04-17 02:32:00,36.0,20.0,29.92,NNE,13,6.0,12.0,52,0.00,,,0.00,,2013-04-17 09:32:00,
2013-04-17 02:42:00,36.0,20.0,29.92,NNE,13,6.0,12.0,52,0.00,,,0.00,,2013-04-17 09:42:00,
2013-04-17 02:52:00,36.0,20.0,29.92,NNE,27,7.0,14.0,52,0.00,,,0.00,,2013-04-17 09:52:00,
2013-04-17 03:02:00,36.0,20.0,29.92,NNE,27,7.0,14.0,52,0.00,,,0.00,,2013-04-17 10:02:00,
2013-04-17 03:12:00,36.0,20.0,29.92,NNE,27,7.0,14.0,52,0.00,,,0.00,,2013-04-17 10:12:00,
2013-04-17 03:22:00,36.0,20.0,29.93,East,101,3.0,10.0,52,0.00,,,0.00,,2013-04-17 10:22:00,
2013-04-17 03:32:00,35.0,20.0,29.92,North,350,6.0,11.0,54,0.00,,,0.00,,2013-04-17 10:32:00,
2013-04-17 03:42:00,35.0,20.0,29.92,North,350,6.0,11.0,54,0.00,,,0.00,,2013-04-17 10:42:00,
2013-04-17 03:52:00,35.0,20.0,29.93,NNW,344,6.0,9.0,54,0.00,,,0.00,,2013-04-17 10:52:00,
2013-04-17 04:02:00,35.0,20.0,29.93,NNW,346,4.0,9.0,55,0.00,,,0.00,,2013-04-17 11:02:00,
2013-04-17 04:11:00,35.0,20.0,29.93,NNW,346,4.0,9.0,55,0.00,,,0.00,,2013-04-17 11:11:00,
2013-04-17 04:21:00,35.0,20.0,29.94,North,360,2.0,8.0,55,0.00,,,0.00,,2013-04-17 11:21:00,
2013-04-17 04:31:00,35.0,20.0,29.94,North,355,5.0,11.0,55,0.00,,,0.00,,2013-04-17 11:31:00,
2013-04-17 04:42:00,35.0,20.0,29.94,North,355,5.0,11.0,55,0.00,,,0.00,,2013-04-17 11:42:00,
2013-04-17 04:51:00,34.0,20.0,29.95,North,349,7.0,15.0,56,0.00,,,0.00,,2013-04-17 11:51:00,
2013-04-17 05:02:00,34.0,20.0,29.95,NNW,344,4.0,9.0,55,0.00,,,0.00,,2013-04-17 12:02:00,
2013-04-17 05:12:00,34.0,20.0,29.95,NNW,344,4.0,9.0,55,0.00,,,0.00,,2013-04-17 12:12:00,
2013-04-17 05:22:00,33.0,20.0,29.96,NNW,336,6.0,13.0,58,0.00,,,0.00,,2013-04-17 12:22:00,
2013-04-17 05:32:00,33.0,20.0,29.96,NNW,347,6.0,12.0,59,0.00,,,0.00,,2013-04-17 12:32:00,
2013-04-17 05:42:00,33.0,20.0,29.96,NNW,347,6.0,12.0,59,0.00,,,0.00,,2013-04-17 12:42:00,
2013-04-17 05:52:00,32.0,20.0,29.96,North,5,4.0,15.0,61,0.00,,,0.00,,2013-04-17 12:52:00,
2013-04-17 06:01:00,33.0,21.0,29.96,North,355,6.0,16.0,61,0.00,,,0.00,,2013-04-17 13:01:00,
2013-04-17 06:12:00,33.0,21.0,29.96,North,355,6.0,16.0,61,0.00,,,0.00,,2013-04-17 13:12:00,
2013-04-17 06:22:00,33.0,21.0,29.97,NNE,14,7.0,14.0,60,0.00,,,0.00,,2013-04-17 13:22:00,
2013-04-17 06:31:00,33.0,21.0,29.97,NNE,14,7.0,14.0,60,0.00,,,0.00,,2013-04-17 13:31:00,
2013-04-17 06:41:00,33.0,21.0,29.97,NNE,14,7.0,14.0,60,0.00,,,0.00,,2013-04-17 13:41:00,
2013-04-17 06:52:00,33.0,21.0,29.97,NNE,14,7.0,14.0,60,0.00,,,0.00,,2013-04-17 13:52:00,
2013-04-17 07:01:00,32.0,20.0,29.99,NNW,337,10.0,13.0,62,0.00,,,0.00,,2013-04-17 14:01:00,
2013-04-17 07:12:00,32.0,20.0,29.99,NNW,337,10.0,13.0,62,0.00,,,0.00,,2013-04-17 14:12:00,
2013-04-17 07:22:00,32.0,20.0,30.00,NNW,344,10.0,15.0,61,0.00,,,0.00,,2013-04-17 14:22:00,
2013-04-17 07:32:00,32.0,20.0,30.01,NNW,340,7.0,15.0,61,0.00,,,0.00,,2013-04-17 14:32:00,
2013-04-17 07:42:00,32.0,20.0,30.01,North,349,7.0,16.0,61,0.00,,,0.00,,2013-04-17 14:42:00,
2013-04-17 07:52:00,32.0,20.0,30.01,North,349,7.0,16.0,61,0.00,,,0.00,,2013-04-17 14:52:00,
2013-04-17 08:02:00,32.0,20.0,30.03,NNW,328,9.0,22.0,61,0.00,,,0.00,,2013-04-17 15:02:00,
2013-04-17 08:11:00,33.0,21.0,30.03,NNE,16,8.0,18.0,60,0.00,,,0.00,,2013-04-17 15:11:00,
2013-04-17 08:21:00,33.0,21.0,30.03,NNE,16,8.0,18.0,60,0.00,,,0.00,,2013-04-17 15:21:00,
2013-04-17 08:33:00,33.0,21.0,30.03,North,349,12.0,20.0,60,0.00,,,0.00,,2013-04-17 15:33:00,
2013-04-17 08:42:00,33.0,21.0,30.03,North,349,12.0,20.0,60,0.00,,,0.00,,2013-04-17 15:42:00,
2013-04-17 08:52:00,34.0,20.0,30.03,North,355,13.0,23.0,57,0.00,,,0.00,,2013-04-17 15:52:00,
2013-04-17 09:03:00,36.0,21.0,30.03,North,355,10.0,20.0,54,0.00,,,0.00,,2013-04-17 16:03:00,
2013-04-17 09:12:00,36.0,21.0,30.03,North,355,10.0,20.0,54,0.00,,,0.00,,2013-04-17 16:12:00,
2013-04-17 09:22:00,36.0,21.0,30.03,North,355,10.0,20.0,54,0.00,,,0.00,,2013-04-17 16:22:00,
2013-04-17 09:32:00,38.0,21.0,30.04,NNE,12,10.0,13.0,50,0.00,,,0.00,,2013-04-17 16:32:00,
2013-04-17 09:41:00,38.0,21.0,30.04,NNE,12,10.0,13.0,50,0.00,,,0.00,,2013-04-17 16:41:00,
2013-04-17 09:52:00,39.0,20.0,30.04,North,355,8.0,15.0,47,0.00,,,0.00,,2013-04-17 16:52:00,
2013-04-17 10:02:00,39.0,20.0,30.04,North,360,9.0,15.0,47,0.00,,,0.00,,2013-04-17 17:02:00,
2013-04-17 10:12:00,39.0,20.0,30.04,North,360,9.0,15.0,47,0.00,,,0.00,,2013-04-17 17:12:00,
2013-04-17 10:22:00,40.0,20.0,30.05,North,355,6.0,14.0,45,0.00,,,0.00,,2013-04-17 17:22:00,
2013-04-17 10:32:00,40.0,20.0,30.05,NNW,346,9.0,18.0,45,0.00,,,0.00,,2013-04-17 17:32:00,
2013-04-17 10:42:00,40.0,20.0,30.05,NNW,346,9.0,18.0,45,0.00,,,0.00,,2013-04-17 17:42:00,
2013-04-17 10:52:00,40.0,20.0,30.05,NNW,346,9.0,18.0,45,0.00,,,0.00,,2013-04-17 17:52:00,
2013-04-17 11:01:00,43.0,21.0,30.05,NNW,348,6.0,11.0,41,0.00,,,0.00,,2013-04-17 18:01:00,
2013-04-17 11:11:00,43.0,21.0,30.05,NNW,348,6.0,11.0,41,0.00,,,0.00,,2013-04-17 18:11:00,
2013-04-17 11:22:00,43.0,20.0,30.05,NNE,19,4.0,13.0,39,0.00,,,0.00,,2013-04-17 18:22:00,
2013-04-17 11:32:00,43.0,20.0,30.05,NNE,19,4.0,13.0,39,0.00,,,0.00,,2013-04-17 18:32:00,
2013-04-17 11:42:00,43.0,20.0,30.05,NNE,19,4.0,13.0,39,0.00,,,0.00,,2013-04-17 18:42:00,
2013-04-17 11:52:00,43.0,20.0,30.05,NNE,19,4.0,13.0,39,0.00,,,0.00,,2013-04-17 18:52:00,
2013-04-17 12:02:00,44.0,22.0,30.05,SE,135,4.0,17.0,41,0.00,,,0.00,,2013-04-17 19:02:00,
2013-04-17 12:12:00,44.0,22.0,30.05,SE,135,4.0,17.0,41,0.00,,,0.00,,2013-04-17 19:12:00,
2013-04-17 12:22:00,44.0,22.0,30.05,SE,135,4.0,17.0,41,0.00,,,0.00,,2013-04-17 19:22:00,
2013-04-17 12:32:00,44.0,21.0,30.05,North,355,13.0,20.0,39,0.00,,,0.00,,2013-04-17 19:32:00,
2013-04-17 12:41:00,44.0,21.0,30.05,North,360,8.0,21.0,39,0.00,,,0.00,,2013-04-17 19:41:00,
2013-04-17 12:52:00,44.0,21.0,30.05,North,360,8.0,21.0,39,0.00,,,0.00,,2013-04-17 19:52:00,
2013-04-17 13:02:00,45.0,22.0,30.04,North,350,11.0,19.0,39,0.00,,,0.00,,2013-04-17 20:02:00,
2013-04-17 13:12:00,45.0,22.0,30.04,North,350,11.0,19.0,39,0.00,,,0.00,,2013-04-17 20:12:00,
2013-04-17 13:21:00,44.0,21.0,30.05,NNE,15,6.0,21.0,39,0.00,,,0.00,,2013-04-17 20:21:00,
2013-04-17 13:31:00,45.0,21.0,30.06,North,360,9.0,19.0,38,0.00,,,0.00,,2013-04-17 20:31:00,
2013-04-17 13:41:00,45.0,21.0,30.06,North,360,9.0,19.0,38,0.00,,,0.00,,2013-04-17 20:41:00,
2013-04-17 13:52:00,45.0,21.0,30.06,North,360,9.0,19.0,38,0.00,,,0.00,,2013-04-17 20:52:00,
2013-04-17 14:02:00,45.0,20.0,30.05,NNW,339,6.0,22.0,37,0.00,,,0.00,,2013-04-17 21:02:00,
2013-04-17 14:11:00,45.0,20.0,30.05,NNW,339,6.0,22.0,37,0.00,,,0.00,,2013-04-17 21:11:00,
2013-04-17 14:22:00,46.0,19.0,30.06,NNW,344,11.0,19.0,34,0.00,,,0.00,,2013-04-17 21:22:00,
2013-04-17 14:32:00,46.0,21.0,30.06,NNE,29,2.0,19.0,36,0.00,,,0.00,,2013-04-17 21:32:00,
2013-04-17 14:42:00,46.0,20.0,30.06,North,355,12.0,23.0,35,0.00,,,0.00,,2013-04-17 21:42:00,
2013-04-17 14:53:00,46.0,20.0,30.06,North,355,12.0,23.0,35,0.00,,,0.00,,2013-04-17 21:53:00,
2013-04-17 15:02:00,46.0,20.0,30.05,WNW,299,7.0,23.0,35,0.00,,,0.00,,2013-04-17 22:02:00,
2013-04-17 15:12:00,46.0,20.0,30.05,WNW,299,7.0,23.0,35,0.00,,,0.00,,2013-04-17 22:12:00,
2013-04-17 15:22:00,46.0,16.0,30.05,North,349,10.0,21.0,30,0.00,,,0.00,,2013-04-17 22:22:00,
2013-04-17 15:32:00,47.0,18.0,30.05,NNW,338,11.0,18.0,31,0.00,,,0.00,,2013-04-17 22:32:00,
2013-04-17 15:42:00,47.0,15.0,30.05,NW,325,11.0,21.0,27,0.00,,,0.00,,2013-04-17 22:42:00,
2013-04-17 15:52:00,47.0,15.0,30.05,NW,325,11.0,21.0,27,0.00,,,0.00,,2013-04-17 22:52:00,
2013-04-17 16:02:00,47.0,16.0,30.04,North,360,11.0,26.0,29,0.00,,,0.00,,2013-04-17 23:02:00,
2013-04-17 16:12:00,47.0,19.0,30.04,North,360,15.0,25.0,32,0.00,,,0.00,,2013-04-17 23:12:00,
2013-04-17 16:22:00,47.0,19.0,30.04,North,360,15.0,25.0,32,0.00,,,0.00,,2013-04-17 23:22:00,
2013-04-17 16:32:00,47.0,19.0,30.04,NNE,12,9.0,18.0,33,0.00,,,0.00,,2013-04-17 23:32:00,
2013-04-17 16:42:00,47.0,19.0,30.04,North,355,12.0,21.0,33,0.00,,,0.00,,2013-04-17 23:42:00,
2013-04-17 16:52:00,47.0,19.0,30.04,North,355,12.0,21.0,33,0.00,,,0.00,,2013-04-17 23:52:00,
2013-04-17 17:01:00,47.0,18.0,30.04,North,351,12.0,19.0,31,0.00,,,0.00,,2013-04-18 00:01:00,
2013-04-17 17:12:00,47.0,20.0,30.04,North,360,11.0,19.0,34,0.00,,,0.00,,2013-04-18 00:12:00,
2013-04-17 17:21:00,47.0,20.0,30.04,North,360,11.0,19.0,34,0.00,,,0.00,,2013-04-18 00:21:00,
2013-04-17 17:32:00,47.0,21.0,30.04,North,11,9.0,20.0,35,0.00,,,0.00,,2013-04-18 00:32:00,
2013-04-17 17:42:00,47.0,21.0,30.04,North,360,11.0,23.0,35,0.00,,,0.00,,2013-04-18 00:42:00,
2013-04-17 17:52:00,47.0,21.0,30.04,North,360,11.0,23.0,35,0.00,,,0.00,,2013-04-18 00:52:00,
2013-04-17 18:01:00,46.0,20.0,30.04,NNW,341,11.0,22.0,35,0.00,,,0.00,,2013-04-18 01:01:00,
2013-04-17 18:11:00,45.0,20.0,30.04,North,5,12.0,21.0,37,0.00,,,0.00,,2013-04-18 01:11:00,
2013-04-17 18:22:00,45.0,20.0,30.04,North,5,12.0,21.0,37,0.00,,,0.00,,2013-04-18 01:22:00,
2013-04-17 18:32:00,45.0,22.0,30.05,North,355,14.0,22.0,39,0.00,,,0.00,,2013-04-18 01:32:00,
2013-04-17 18:41:00,44.0,20.0,30.05,NNW,346,13.0,20.0,38,0.00,,,0.00,,2013-04-18 01:41:00,
2013-04-17 18:52:00,44.0,20.0,30.05,NNW,346,13.0,20.0,38,0.00,,,0.00,,2013-04-18 01:52:00,
2013-04-17 19:01:00,44.0,20.0,30.05,NNW,339,11.0,22.0,38,0.00,,,0.00,,2013-04-18 02:01:00,
2013-04-17 19:11:00,44.0,21.0,30.05,NNE,24,11.0,21.0,39,0.00,,,0.00,,2013-04-18 02:11:00,
2013-04-17 19:22:00,44.0,21.0,30.05,NNE,24,11.0,21.0,39,0.00,,,0.00,,2013-04-18 02:22:00,
2013-04-17 19:32:00,43.0,20.0,30.05,North,355,9.0,18.0,40,0.00,,,0.00,,2013-04-18 02:32:00,
2013-04-17 19:41:00,43.0,20.0,30.05,North,355,9.0,18.0,40,0.00,,,0.00,,2013-04-18 02:41:00,
2013-04-17 19:52:00,43.0,20.0,30.05,North,355,9.0,18.0,40,0.00,,,0.00,,2013-04-18 02:52:00,
2013-04-17 20:01:00,43.0,20.0,30.06,NNW,348,11.0,18.0,40,0.00,,,0.00,,2013-04-18 03:01:00,
2013-04-17 20:11:00,43.0,20.0,30.06,North,355,12.0,20.0,40,0.00,,,0.00,,2013-04-18 03:11:00,
2013-04-17 20:21:00,43.0,20.0,30.06,North,355,12.0,20.0,40,0.00,,,0.00,,2013-04-18 03:21:00,
2013-04-17 20:33:00,43.0,20.0,30.05,North,11,11.0,19.0,40,0.00,,,0.00,,2013-04-18 03:33:00,
2013-04-17 20:42:00,43.0,20.0,30.06,NNW,337,11.0,22.0,40,0.00,,,0.00,,2013-04-18 03:42:00,
2013-04-17 20:52:00,42.0,19.0,30.08,North,355,12.0,18.0,40,0.00,,,0.00,,2013-04-18 03:52:00,
2013-04-17 20:53:00,43.0,20.0,30.06,NNW,337,11.0,22.0,40,0.00,,,0.00,,2013-04-18 03:53:00,
2013-04-17 21:03:00,42.0,19.0,30.08,North,360,11.0,16.0,40,0.00,,,0.00,,2013-04-18 04:03:00,
2013-04-17 21:13:00,42.0,19.0,30.08,North,360,11.0,16.0,40,0.00,,,0.00,,2013-04-18 04:13:00,
2013-04-17 21:23:00,42.0,19.0,30.08,North,355,12.0,18.0,40,0.00,,,0.00,,2013-04-18 04:23:00,
2013-04-17 21:32:00,42.0,19.0,30.08,North,355,12.0,18.0,40,0.00,,,0.00,,2013-04-18 04:32:00,
2013-04-17 21:42:00,42.0,19.0,30.08,North,355,12.0,18.0,40,0.00,,,0.00,,2013-04-18 04:42:00,
2013-04-17 22:02:00,42.0,18.0,30.10,NNW,342,7.0,15.0,38,0.00,,,0.00,,2013-04-18 05:02:00,
2013-04-17 22:12:00,42.0,18.0,30.10,NNW,342,7.0,15.0,38,0.00,,,0.00,,2013-04-18 05:12:00,
2013-04-17 22:22:00,42.0,18.0,30.10,NNW,342,7.0,15.0,38,0.00,,,0.00,,2013-04-18 05:22:00,
2013-04-17 22:32:00,43.0,18.0,30.10,NNW,346,12.0,21.0,36,0.00,,,0.00,,2013-04-18 05:32:00,
2013-04-17 22:42:00,43.0,18.0,30.11,NNE,14,12.0,17.0,36,0.00,,,0.00,,2013-04-18 05:42:00,
2013-04-17 22:52:00,43.0,18.0,30.11,NNE,14,12.0,17.0,36,0.00,,,0.00,,2013-04-18 05:52:00,
2013-04-17 23:02:00,43.0,18.0,30.11,NNE,14,12.0,17.0,36,0.00,,,0.00,,2013-04-18 06:02:00,
2013-04-17 23:12:00,44.0,15.0,30.11,North,355,6.0,11.0,31,0.00,,,0.00,,2013-04-18 06:12:00,
2013-04-17 23:21:00,44.0,15.0,30.11,North,355,6.0,11.0,31,0.00,,,0.00,,2013-04-18 06:21:00,
2013-04-17 23:32:00,45.0,15.0,30.11,NNW,347,7.0,12.0,30,0.00,,,0.00,,2013-04-18 06:32:00,
2013-04-17 23:42:00,45.0,15.0,30.11,NNW,348,5.0,9.0,30,0.00,,,0.00,,2013-04-18 06:42:00,
2013-04-17 23:52:00,45.0,15.0,30.11,NNW,348,5.0,9.0,30,0.00,,,0.00,,2013-04-18 06:52:00,